YZ-1 R/B, 44866

Orbit data source: Space-Track

YZ-1 R/B, 44866 is space debris originally from a launch on Mon, 16 Dec 2019 UTC launched from the Xichang Space Center, China (XSC). Debris objects in space refer to the collection of defunct objects orbiting the Earth. Examples of debris include non-operational satellites, rocket bodies, and fragments generated from explosions, collisions, or faulty payload assembly.

Loading next visibility...
Identifier
44866, 2019-090C
Orbit
Active
Country
Flag of CNCN / PRC
Related business
Manufacturer
CALT
Mission
Spacecraft
Bus & Motor
YZ-1, Unknown motor
Mass
~2,075 kg wet, ~2,075 kg dry
Launch date (UTC)
2019-12-16 (6 years ago)
Launch vehicle
Unknown
Launch site
Xichang Space Center, China (XSC)
Object type
Payload
Rocket body
Debris
Shape & HBR
Double Cone, 2.0 m
Radar Cross Section
5.890 m², Large (>1 m²)

Expand to show TLE details & history
Last TLE update: 1 day ago

TLE from 1 day ago
0 YZ-1 R/B
1 44866U 19090C   26126.26587796 -.00000020  00000-0  00000+0 0  9996
2 44866  56.3484  70.7975 0071118  39.1924 321.2907  1.78364264 41629
Epoch: 2026-05-06T06:22Z
TLE epoch observation values (Epoch: 2026-05-06T06:22:51.855Z)
Latitude
0.00006°
Longitude
110.93947°
Altitude
22,183.801 km
Speed
3.746 km/s
True Right ascension
04h 43m 08s
True Declination
0° 00' 00"
Sunlit
Object was in daylight at epoch
Visualization orbit readout
Latitude
Unknown
Longitude
Unknown
Altitude
Unknown
Speed
Unknown
Apparent Right ascension
Unknown
Apparent Declination
Unknown
Sunlit
N/A
Visualization observer readout
Local Sidereal Time
23:34:21
Azimuth
Unknown
Elevation
Unknown
Doppler factor
Unknown
Orbital elements
Apogee altitude
22,546.882 km
Perigee altitude
22,138.369 km
Semi-major axis
28,720.762 km
Eccentricity
0.00711
Inclination
56.3484°
RAAN
70.7975°
Arg. of periapsis
39.1924°
True anomaly
320.7775°
Mean anomaly
321.2907°
Eccentric anomaly
321.03446°
Mean motion
0.44591 °/min
Orbital period
807.33 mins
BSTAR
0
Loading maneuver chart data...
Computing Atmospheric mass density...
Loading historical data...
Loading historical data...
Loading historical data...
Loading historical data...
Loading historical data...
Loading historical data...
Loading historical data...
Other satellites on launch #90 in the year 2019 (2019-12-16 UTC)

Documentation

Showing up to 5 results
|